Alliance, NE

6:37 AM MST on December 14, 2019 (GMT -0700)
Alliance Municipal

Weather History for KAIA - November, 2019

Change the Weather History Date:

Tuesday, November 12, 2019

  Actual Average Record
Temperature  
Mean Temperature 21 °F -  
Max Temperature 50 °F 51 °F 76 °F (1999)
Min Temperature -8 °F 25 °F -14 °F (2000)
Degree Days  
Heating Degree Days 44    
Moisture  
Dew Point 14 °F    
Average Humidity 60    
Maximum Humidity 83    
Minimum Humidity 28    
Precipitation  
Precipitation 0.00 in - - ()
Sea Level Pressure  
Sea Level Pressure 30.15 in    
Wind  
Wind Speed 6 mph (WSW)    
Max Wind Speed 22 mph    
Max Gust Speed -    
Visibility 10 miles    
Events      
Averages and records for this station are not official NWS values.
T = Trace of Precipitation, MM = Missing Value Source: NWS Daily Summary

Daily Weather History Graph

Daily Weather History Graph

Search for Another Location

Airport or City:

Astronomy

Nov. 12, 2019 Rise Set
Actual Time 6:37 AM MST 4:32 PM MST
Civil Twilight 6:07 AM MST 5:02 PM MST
Nautical Twilight 5:33 AM MST 5:36 PM MST
Astronomical Twilight 5:00 AM MST 6:09 PM MST
Moon 5:01 PM MST (11/12) 6:30 AM MST (11/12)
Length of Visible Light 10h 55m
Length of Day
9h 55m
Full, 100% of the Moon is Illuminated
Nov 12
Full
Nov 19
Last Quarter
Nov 26
New
Dec 3
First Quarter
Dec 11
Full

Hourly Weather History & Observations

Time (MST) Temp. Windchill Dew Point Humidity Pressure Visibility Wind Dir Wind Speed Gust Speed Precip Events Conditions
12:53 AM -6.0 °F - -9.9 °F 83% 30.56 in 10.0 mi Calm Calm - N/A   Clear
2:53 AM -8.0 °F -16.9 °F -13.0 °F 79% 30.51 in 10.0 mi SW 3.5 mph - N/A   Clear
3:53 AM -2.9 °F - -8.0 °F 79% 30.45 in 10.0 mi Calm Calm - N/A   Clear
4:53 AM -2.0 °F -10.1 °F -7.1 °F 79% 30.43 in 10.0 mi South 3.5 mph - N/A   Clear
5:53 AM -2.9 °F -13.3 °F -8.0 °F 79% 30.42 in 10.0 mi South 4.6 mph - N/A   Clear
9:53 AM 37.9 °F 30.5 °F 19.0 °F 47% 30.21 in 10.0 mi West 11.5 mph - N/A   Clear
10:53 AM 39.9 °F 32.1 °F 19.9 °F 45% 30.19 in 10.0 mi WSW 13.8 mph - N/A   Clear
11:53 AM 45.0 °F 38.2 °F 21.9 °F 40% 30.15 in 10.0 mi WSW 15.0 mph - N/A   Clear
12:53 PM 48.9 °F - 21.9 °F 35% 30.09 in 10.0 mi West 13.8 mph - N/A   Clear
1:53 PM 50.0 °F - 18.0 °F 28% 30.08 in 10.0 mi West 21.9 mph - N/A   Clear
2:53 PM 50.0 °F - 21.0 °F 32% 30.06 in 10.0 mi West 12.7 mph - N/A   Clear
3:53 PM 46.0 °F 40.6 °F 21.9 °F 39% 30.05 in 10.0 mi SSW 11.5 mph - N/A   Clear
4:53 PM 37.0 °F 31.0 °F 21.0 °F 52% 30.06 in 10.0 mi South 8.1 mph - N/A   Clear
5:53 PM 34.0 °F 31.0 °F 21.0 °F 59% 30.06 in 10.0 mi WSW 3.5 mph - N/A   Clear
6:53 PM 32.0 °F 28.7 °F 21.0 °F 64% 30.04 in 10.0 mi WSW 3.5 mph - N/A   Clear
7:53 PM 34.0 °F 28.8 °F 21.0 °F 59% 30.03 in 10.0 mi West 5.8 mph - N/A   Clear
8:53 PM 30.9 °F 25.2 °F 23.0 °F 72% 30.03 in 10.0 mi West 5.8 mph - N/A   Clear
9:53 PM 28.0 °F 21.7 °F 21.9 °F 78% 29.90 in 10.0 mi West 5.8 mph - N/A   Scattered Clouds
10:53 PM 32.0 °F 24.8 °F 25.0 °F 75% 29.85 in 10.0 mi WNW 8.1 mph - N/A   Clear
11:53 PM 33.1 °F 28.7 °F 25.0 °F 72% 29.82 in 10.0 mi West 4.6 mph - N/A   Partly Cloudy